カタログに戻る

SL-8 DEB

運用中LEO
NORAD 21115·DEBRIS·🇷🇺 Russia

打ち上げ Feb 12, 1991 から Plesetsk Cosmodrome

Loading…

次のパス (今後24時間)

TLE

最新Source: Space-Track

元期: Sep 14, 2026, 05:53 UTC

1 21115U 91009M   26257.24554823 -.00000087  00000-0 -68343-3 0  9998
2 21115  74.0393 185.5534 0183557 274.8371 239.9261 12.16943311580017

AllMySatでSL-8 DEBをリアルタイム追跡

Download on the App Store